Regional Weather Roundup
Issued by NWS Jackson, KY

Home | Current Version | Previous Version | Graphics & Text | Print | Product List | Glossary On
Versions: 1 2 3 4 5 6 7 8 9 10 11 12 13 14 15 16 17 18 19 20 21 22 23 24 25 26 27 28 29 30 31 32 33 34 35 36 37 38 39 40 41 42 43 44 45 46 47 48 49 50
000
ASUS43 KJKL 221010
RWRJKL

EAST KENTUCKY HOURLY WEATHER ROUNDUP
NATIONAL WEATHER SERVICE JACKSON KY
600 AM EDT FRI JUL 22 2016

NOTE: "FAIR" INDICATES FEW OR NO CLOUDS BELOW 12,000 FEET WITH
NO SIGNIFICANT WEATHER AND/OR OBSTRUCTIONS TO VISIBILITY.

* THESE REPORTS ARE NOT UNDER NWS QUALITY CONTROL AND MAY NOT
  REPORT WEATHER SUCH AS PRECIPITATION AND FOG.

KYZ079-080-083-085-087-088-110-112-115-119-120-221100
...EASTERN KENTUCKY...

CITY           SKY/WX    TMP DP  RH WIND       PRES   REMARKS
JACKSON        CLOUDY    70  65  84 CALM      30.11F
LONDON         PTCLDY    67  64  90 CALM      30.11F
SOMERSET*      CLOUDY    66  66 100 CALM      30.11F
MONTICELLO*    CLOUDY   N/A N/A N/A W9        30.12S
WILLIAMSBURG*  MOSUNNY   66  66 100 CALM      30.12S
MIDDLESBORO*   CLOUDY    67  66  96 CALM      30.14S
HARLAN APT*      N/A     66  63  88 CALM      30.16R
PIKE CO APT*     N/A     67  67  99 CALM      30.13S
BIG SANDY APT* PTSUNNY   69  67  92 S3        30.11S
MOREHEAD APT*  CLOUDY    72  68  88 CALM      30.10S
ASHLAND*       CLOUDY    72  70  94 CALM      30.04F
$$

KYZ035-036-041-042-044-050-067-078-099-221100
...CENTRAL KENTUCKY...

CITY           SKY/WX    TMP DP  RH WIND       PRES   REMARKS
MT STERLING*   MOCLDY    70  68  94 SW3       30.10S
FLEMING/MASON* MOCLDY    73  67  82 S5        30.08S
DANVILLE*      PTCLDY    70  68  94 CALM      30.11S
RICHMOND*      PTCLDY    70  66  88 CALM      30.09S
LEXINGTON      CLOUDY    73  69  87 S5        30.08F
FRANKFORT      MOCLDY    74  70  87 CALM      30.05F
LOUISVILLE     CLOUDY    78  74  87 SE5       30.04F
LEBANON*         N/A     75  72  88 MISG      30.08F
GLASGOW*       CLOUDY    72  72 100 CALM      30.08S
BOWLING GREEN  CLOUDY    76  74  93 CALM      30.07S FOG
$$

KYZ091>093-OHZ055-061-077-WVZ005-015-034-035-042-221100
...SOUTHERN OHIO/WEST VIRGINIA...

CITY           SKY/WX    TMP DP  RH WIND       PRES   REMARKS
COVINGTON      CLOUDY    75  73  93 S6        30.05F
COLUMBUS       CLOUDY    72  68  87 S3        30.02F
DAYTON         MOCLDY    73  67  81 S8        30.04S
WILMINGTON     MOCLDY    72  70  93 S7        30.05S
HUNTINGTON       N/A     69  67  93 CALM      30.07S
CHARLESTON       N/A     65  64  97 CALM      30.09S
PINEVILLE*       N/A     61  58  90 MISG      30.20S
BECKLEY          N/A     60  57  89 CALM      30.18S
BLUEFIELD        N/A     65  56  72 CALM      30.20S
LOGAN CO APT*    N/A     66  64  94 CALM      30.12S
$$

VAZ002-007-008-TNZ017-027-036-066-071-221100
...SOUTHWEST VIRGINIA/EAST TENNESSEE...

CITY           SKY/WX    TMP DP  RH WIND       PRES   REMARKS
WISE*            N/A     68  52  56 SW5       30.21S
JONESVILLE*    PTSUNNY   66  64  94 CALM      30.16S
ABINGDON*        N/A     66  59  76 E5        30.17F
BRISTOL        CLOUDY    65  61  87 CALM      30.15R
MORRISTOWN*    CLOUDY    72  68  88 CALM      30.13S
SEVIERVILLE*   SUNNY     70  66  88 E3        30.12S
KNOXVILLE      PTCLDY    75  69  81 NW3       30.11S
OAK RIDGE      PTCLDY    77  69  76 SW3       30.12F
CROSSVILLE     CLOUDY    70  68  93 W3        30.15F
NASHVILLE      PTCLDY    76  72  87 CALM      30.07F
$$

...KEY TO REMARKS...
VSB - VISIBILITY IN MILES
WCI - WIND CHILL INDEX
HX  - HEAT INDEX

$$



USA.gov is the U.S. government's official web portal to all federal, state and local government web resources and services.